IRS P4 (OCEANSAT 1)

Satellite information

Favourite Embed

Satellite Type and Status

PAYLOADIN ORBIT

Key statistics

Satellite IRS P4 (OCEANSAT 1) at a glance.

Uptime

9699

Days in orbit

Revolutions

≈ 14.6

Per day

Orbit

SSO

Sun Synchronous Orbit

Inclination

97.9

Latest

Satellite identification and parameters

Extended collection of information and parameters for IRS P4 (OCEANSAT 1).

Object identification

Identified? True

Debris? False

Object name: IRS P4 (OCEANSAT 1)

International designator: 1999-029C

Object number (NORAD): 25758

Object ID (CCSDS): 25758

Country: INDIA (IND)

Current information (Y/N): Y

RCS size: LARGE

Orbital parameters

Period: 98.965 minutes

Inclination: 97.9472 deg

SMA: 7087.322 km

Apoapsis: 711.692 km

Periapsis: 706.682 km

RAAN: 322.7274 deg

Eccentricy: 0.0003534

Argument of periapsis: 36.806 deg

Mean anomaly: 323.338 deg

Mean motion: 14.55055313 rev/day

Mean motion (dot): 0.00000836 rev/day2

B* drag term: 0.00020382 1/REarth

Two-line elements (TLE)

Creation date: Dec. 12, 2025, 7:16 a.m.

Reference frame: TEME

Reference center: EARTH

Epoch: Dec. 11, 2025, 10:35 p.m. UTC

TLE line 0: 0 IRS P4 (OCEANSAT 1)

TLE line 1: 1 25758U 99029C 25345.94097291 .00000836 00000-0 20382-3 0 9991

TLE line 2: 2 25758 97.9472 322.7274 0003534 36.8060 323.3380 14.55055313406882

Live tracking on map

Real-time ground track for satellite IRS P4 (OCEANSAT 1).

In-orbit conjunctions

A list of the most updated potential collisions computed for object IRS P4 (OCEANSAT 1).

Target Orbit TCA Probability of collision Miss distance Type
CZ-4C DEB SSO 2025-09-22 01:08:36 0.0004491196 955.0 (m) DEBRIS
CZ-6A DEB SSO 2025-08-11 12:12:48 0.0001107981 211.0 (m) DEBRIS
FENGYUN 1C DEB SSO 2025-06-19 23:43:17 0.0007673716 51.0 (m) DEBRIS
COSMOS 2251 DEB LEO 2024-11-02 18:53:31 0.0004088931 104.0 (m) DEBRIS
SL-16 DEB LEO 2024-06-02 22:49:58 0.0001203113 253.0 (m) DEBRIS

Associated space launch

IRS-P4 (Indian Remote Sensing Satellite) or Oceansat is the first indian satellite primarily built for Ocean applications. Kitsat (Korean Institute of Technology Satellite 3), renamed on orbit as Uribyol 3, was the first Korean satellite in true sense and was launched by an Indian PSLV-G (2) rocket in May 1999.

IRS P4 (OCEANSAT 1) was lifted into orbit during the mission ‘PSLV | IRS-P4 & Uribyol-3’, on board a PSLV space rocket.

The launch took place on May 26, 1999, 6:22 a.m. from Satish Dhawan Space Centre First Launch Pad.

For more information about the launch, click the button.

Launch to space PSLV | IRS-P4 & Uribyol-3
PSLV | IRS-P4 & Uribyol-3

Agency: N/A

Status: Launch Successful

Launch date: May 26, 1999, 6:22 a.m. UTC

Rocket: PSLV

Launch pad: Satish Dhawan Space Centre First Launch Pad

Location: Satish Dhawan Space Centre, India

...

Latest news about this satellite

There are no fresh news available about this satellite. Check back as we update our databases every day.


Newsletter sign-up

Weekly statistics, charts and insights to help you stay on top of the space industry.